Location: Capelle
(50.3413°N, 1.9974°E)
Time: 00:26:50
(UTC+00:00)

Cosmos 1603 - Pass Details

Date: 12 January 2026
Orbit: 831 x 857 km, 71.0° (Epoch: 18 February)

Event Time Altitude Azimuth Distance (km) Brightness Sun altitude
Rises 18:46:53 0° 207° (SSW) 3,390 7.3 -23.7°
Reaches altitude 10° 18:49:19 10° 208° (SSW) 2,455 6.5 -24.1°
Maximum altitude 18:54:58 89° 300° (WNW) 845 3.6 -25.0°
Enters shadow 18:56:25 52° 28° (NNE) 1,036 3.9 -25.2°
